Simultaneous Nadir Overpasses (SNOs) Predictions

Prediction of SNOs between METOP-A and TERRA Satellite Orbit:

Table of predicted SNOs for the next 14.0 days since TLE Epoch: 3/12/2016
Index Date (METOP-A) Time (METOP-A) Lat,Lon (METOP-A) SZA (METOP-A ) Date (TERRA) Time (TERRA) Lat,Lon (TERRA) SZA (TERRA ) Distance(km) Time Diff (sec)
1 03/12/2016 18:18:28 81.30, -47.35 86.73 03/12/2016 18:19:04 81.31, -47.42 86.74 1.11 36
2 03/12/2016 19:09:09 -81.30, 120.00 93.28 03/12/2016 19:08:31 -81.30, 120.10 93.29 1.78 38
3 03/15/2016 13:52:53 81.30, 18.80 85.62 03/15/2016 13:53:19 81.29, 18.77 85.62 1.03 26
4 03/15/2016 14:43:33 -81.31,-173.41 94.35 03/15/2016 14:42:45 -81.31,-173.29 94.35 2.06 48
5 03/18/2016 09:27:16 81.30, 85.30 84.55 03/18/2016 09:27:32 81.31, 85.45 84.57 2.52 16
6 03/18/2016 10:17:56 -81.31,-106.87 95.41 03/18/2016 10:16:59 -81.30,-106.95 95.45 1.51 57
7 03/21/2016 05:01:40 81.30, 151.77 83.47 03/21/2016 05:01:47 81.30, 151.87 83.49 1.58 7
8 03/21/2016 05:52:20 -81.31, -40.35 96.48 03/21/2016 05:51:14 -81.30, -40.49 96.53 2.39 66
9 03/23/2016 23:45:25 -81.30, 50.43 97.65 03/23/2016 23:46:37 -81.29, 50.39 97.63 1.12 72
10 03/24/2016 00:36:04 81.30,-141.79 82.40 03/24/2016 00:36:02 81.31,-141.60 82.42 3.27 2




NCC Satellite Simultaneous Nadir Overpasses (SNOs) Prediction Service
